Time,TemperatureF,DewpointF,PressureIn,WindDirection,WindDirectionDegrees,WindSpeedMPH,WindSpeedGustMPH,Humidity,HourlyPrecipIn,Conditions,Clouds,dailyrainin,SoftwareType,DateUTC
2013-02-19 00:01:00,68.0,63.0,30.13,ENE,69,10.0,24.0,83,0.04,,,0.04,,2013-02-19 10:01:00,
2013-02-19 00:11:00,68.0,63.0,30.13,ENE,69,10.0,24.0,83,0.04,,,0.04,,2013-02-19 10:11:00,
2013-02-19 00:21:00,68.0,63.0,30.13,NE,55,15.0,29.0,85,0.04,,,0.04,,2013-02-19 10:21:00,
2013-02-19 00:31:00,68.0,63.0,30.13,NNE,32,10.0,22.0,85,0.03,,,0.04,,2013-02-19 10:31:00,
2013-02-19 00:41:00,68.0,63.0,30.13,NNE,32,10.0,22.0,85,0.03,,,0.04,,2013-02-19 10:41:00,
2013-02-19 00:52:00,68.0,64.0,30.13,NE,34,11.0,15.0,86,0.00,,,0.04,,2013-02-19 10:52:00,
2013-02-19 01:01:00,67.0,63.0,30.13,ENE,61,11.0,17.0,86,0.00,,,0.04,,2013-02-19 11:01:00,
2013-02-19 01:11:00,67.0,63.0,30.12,ENE,68,12.0,19.0,86,0.00,,,0.04,,2013-02-19 11:11:00,
2013-02-19 01:21:00,67.0,63.0,30.12,ENE,68,12.0,19.0,86,0.00,,,0.04,,2013-02-19 11:21:00,
2013-02-19 01:31:00,68.0,63.0,30.13,ENE,65,8.0,17.0,85,0.00,,,0.04,,2013-02-19 11:31:00,
2013-02-19 01:41:00,68.0,63.0,30.13,ENE,65,8.0,17.0,85,0.00,,,0.04,,2013-02-19 11:41:00,
2013-02-19 01:52:00,68.0,63.0,30.11,ENE,69,11.0,26.0,85,0.00,,,0.05,,2013-02-19 11:52:00,
2013-02-19 02:01:00,68.0,64.0,30.11,NE,40,11.0,30.0,86,0.01,,,0.06,,2013-02-19 12:01:00,
2013-02-19 02:12:00,68.0,64.0,30.11,NE,40,11.0,30.0,86,0.01,,,0.06,,2013-02-19 12:12:00,
2013-02-19 02:21:00,67.0,63.0,30.12,NE,51,6.0,21.0,86,0.02,,,0.07,,2013-02-19 12:21:00,
2013-02-19 02:32:00,67.0,63.0,30.11,ENE,76,16.0,22.0,87,0.02,,,0.07,,2013-02-19 12:32:00,
2013-02-19 02:41:00,67.0,63.0,30.11,ENE,76,16.0,22.0,87,0.02,,,0.07,,2013-02-19 12:41:00,
2013-02-19 02:52:00,66.0,62.0,30.10,ENE,68,10.0,24.0,87,0.09,,,0.15,,2013-02-19 12:52:00,
2013-02-19 03:01:00,66.0,62.0,30.11,East,82,15.0,26.0,87,0.09,,,0.15,,2013-02-19 13:01:00,
2013-02-19 03:11:00,66.0,62.0,30.11,East,82,15.0,26.0,87,0.09,,,0.15,,2013-02-19 13:11:00,
2013-02-19 03:22:00,66.0,63.0,30.10,ENE,70,16.0,22.0,89,0.07,,,0.15,,2013-02-19 13:22:00,
2013-02-19 03:31:00,66.0,63.0,30.10,East,86,21.0,23.0,89,0.07,,,0.15,,2013-02-19 13:31:00,
2013-02-19 03:41:00,66.0,63.0,30.10,East,86,21.0,23.0,89,0.07,,,0.15,,2013-02-19 13:41:00,
2013-02-19 03:52:00,66.0,63.0,30.10,NE,47,12.0,24.0,89,0.00,,,0.15,,2013-02-19 13:52:00,
2013-02-19 04:01:00,66.0,62.0,30.09,East,88,15.0,23.0,88,0.00,,,0.15,,2013-02-19 14:01:00,
2013-02-19 04:11:00,66.0,62.0,30.09,East,88,15.0,23.0,88,0.00,,,0.15,,2013-02-19 14:11:00,
2013-02-19 04:21:00,66.0,62.0,30.09,East,92,25.0,29.0,87,0.00,,,0.15,,2013-02-19 14:21:00,
2013-02-19 04:32:00,67.0,62.0,30.09,NE,49,6.0,18.0,85,0.00,,,0.15,,2013-02-19 14:32:00,
2013-02-19 04:41:00,67.0,62.0,30.09,NE,49,6.0,18.0,85,0.00,,,0.15,,2013-02-19 14:41:00,
2013-02-19 04:52:00,67.0,61.0,30.09,ENE,67,13.0,26.0,82,0.00,,,0.15,,2013-02-19 14:52:00,
2013-02-19 05:01:00,67.0,60.0,30.09,ENE,65,10.0,27.0,79,0.00,,,0.15,,2013-02-19 15:01:00,
2013-02-19 05:11:00,67.0,60.0,30.09,ENE,65,10.0,27.0,79,0.00,,,0.15,,2013-02-19 15:11:00,
2013-02-19 05:21:00,67.0,59.0,30.10,NE,55,12.0,22.0,76,0.00,,,0.15,,2013-02-19 15:21:00,
2013-02-19 05:31:00,67.0,58.0,30.10,ENE,58,15.0,28.0,74,0.00,,,0.15,,2013-02-19 15:31:00,
2013-02-19 05:41:00,67.0,58.0,30.10,ENE,58,15.0,28.0,74,0.00,,,0.15,,2013-02-19 15:41:00,
2013-02-19 05:52:00,67.0,58.0,30.09,ENE,57,14.0,25.0,74,0.00,,,0.15,,2013-02-19 15:52:00,
2013-02-19 06:01:00,68.0,59.0,30.09,ENE,78,3.0,26.0,73,0.00,,,0.15,,2013-02-19 16:01:00,
2013-02-19 06:11:00,68.0,59.0,30.09,ENE,78,3.0,26.0,73,0.00,,,0.15,,2013-02-19 16:11:00,
2013-02-19 06:21:00,67.0,57.0,30.10,East,80,10.0,26.0,71,0.00,,,0.15,,2013-02-19 16:21:00,
2013-02-19 06:31:00,67.0,57.0,30.10,ENE,67,13.0,23.0,70,0.00,,,0.15,,2013-02-19 16:31:00,
2013-02-19 06:41:00,67.0,57.0,30.10,ENE,67,13.0,23.0,70,0.00,,,0.15,,2013-02-19 16:41:00,
2013-02-19 06:52:00,68.0,57.0,30.11,ENE,76,9.0,27.0,68,0.00,,,0.15,,2013-02-19 16:52:00,
2013-02-19 07:01:00,68.0,57.0,30.11,ENE,78,11.0,23.0,67,0.00,,,0.15,,2013-02-19 17:01:00,
2013-02-19 07:11:00,68.0,57.0,30.11,ENE,78,11.0,23.0,67,0.00,,,0.15,,2013-02-19 17:11:00,
2013-02-19 07:21:00,68.0,57.0,30.12,East,94,8.0,19.0,67,0.00,,,0.15,,2013-02-19 17:21:00,
2013-02-19 07:31:00,68.0,57.0,30.12,ENE,65,7.0,17.0,67,0.00,,,0.15,,2013-02-19 17:31:00,
2013-02-19 07:41:00,68.0,57.0,30.12,ESE,112,13.0,23.0,68,0.00,,,0.15,,2013-02-19 17:41:00,
2013-02-19 07:52:00,68.0,57.0,30.12,ESE,112,13.0,23.0,68,0.00,,,0.15,,2013-02-19 17:52:00,
2013-02-19 08:01:00,69.0,59.0,30.12,ESE,113,19.0,21.0,71,0.00,,,0.15,,2013-02-19 18:01:00,
2013-02-19 08:11:00,69.0,59.0,30.12,ESE,113,19.0,21.0,71,0.00,,,0.15,,2013-02-19 18:11:00,
2013-02-19 08:21:00,69.0,59.0,30.13,ENE,68,10.0,26.0,71,0.00,,,0.15,,2013-02-19 18:21:00,
2013-02-19 08:31:00,69.0,60.0,30.13,East,83,9.0,21.0,72,0.00,,,0.15,,2013-02-19 18:31:00,
2013-02-19 08:41:00,70.0,61.0,30.14,ENE,78,1.0,21.0,73,0.00,,,0.15,,2013-02-19 18:41:00,
2013-02-19 08:52:00,70.0,61.0,30.14,ENE,78,1.0,21.0,73,0.00,,,0.15,,2013-02-19 18:52:00,
2013-02-19 09:01:00,70.0,60.0,30.14,ENE,73,7.0,25.0,71,0.00,,,0.15,,2013-02-19 19:01:00,
2013-02-19 09:11:00,70.0,60.0,30.14,ENE,73,7.0,25.0,71,0.00,,,0.15,,2013-02-19 19:11:00,
2013-02-19 09:21:00,71.0,61.0,30.14,East,86,10.0,26.0,71,0.00,,,0.15,,2013-02-19 19:21:00,
2013-02-19 09:31:00,71.0,61.0,30.14,ENE,70,9.0,17.0,70,0.00,,,0.15,,2013-02-19 19:31:00,
2013-02-19 09:41:00,71.0,61.0,30.14,ENE,70,9.0,17.0,70,0.00,,,0.15,,2013-02-19 19:41:00,
2013-02-19 09:52:00,71.0,61.0,30.14,ENE,76,13.0,24.0,70,0.00,,,0.15,,2013-02-19 19:52:00,
2013-02-19 10:01:00,72.0,62.0,30.14,ESE,105,12.0,16.0,70,0.00,,,0.15,,2013-02-19 20:01:00,
2013-02-19 10:11:00,72.0,62.0,30.14,ESE,105,12.0,16.0,70,0.00,,,0.15,,2013-02-19 20:11:00,
2013-02-19 10:21:00,71.0,62.0,30.14,ENE,62,11.0,23.0,73,0.00,,,0.15,,2013-02-19 20:21:00,
2013-02-19 10:31:00,71.0,62.0,30.15,NE,53,4.0,21.0,73,0.00,,,0.15,,2013-02-19 20:31:00,
2013-02-19 10:41:00,71.0,62.0,30.15,NE,53,4.0,21.0,73,0.00,,,0.15,,2013-02-19 20:41:00,
2013-02-19 10:52:00,70.0,62.0,30.14,ENE,60,16.0,21.0,77,0.00,,,0.15,,2013-02-19 20:52:00,
2013-02-19 11:01:00,71.0,63.0,30.14,ENE,65,14.0,21.0,76,0.00,,,0.15,,2013-02-19 21:01:00,
2013-02-19 11:11:00,71.0,63.0,30.14,ENE,65,14.0,21.0,76,0.00,,,0.15,,2013-02-19 21:11:00,
2013-02-19 11:21:00,73.0,63.0,30.14,NE,34,14.0,18.0,72,0.00,,,0.15,,2013-02-19 21:21:00,
2013-02-19 11:31:00,74.0,63.0,30.13,NNE,33,17.0,23.0,69,0.00,,,0.15,,2013-02-19 21:31:00,
2013-02-19 11:42:00,74.0,63.0,30.13,NNE,33,17.0,23.0,69,0.00,,,0.15,,2013-02-19 21:42:00,
2013-02-19 11:51:00,74.0,63.0,30.12,ENE,72,10.0,27.0,68,0.00,,,0.15,,2013-02-19 21:51:00,
2013-02-19 12:01:00,74.0,64.0,30.12,NNE,23,12.0,23.0,70,0.00,,,0.15,,2013-02-19 22:01:00,
2013-02-19 12:11:00,74.0,64.0,30.12,NNE,23,12.0,23.0,70,0.00,,,0.15,,2013-02-19 22:11:00,
2013-02-19 12:21:00,75.0,63.0,30.11,NE,56,14.0,19.0,67,0.00,,,0.15,,2013-02-19 22:21:00,
2013-02-19 12:31:00,75.0,64.0,30.10,East,86,17.0,22.0,69,0.00,,,0.15,,2013-02-19 22:31:00,
2013-02-19 12:41:00,75.0,64.0,30.10,East,86,17.0,22.0,69,0.00,,,0.15,,2013-02-19 22:41:00,
2013-02-19 12:52:00,76.0,64.0,30.09,NE,56,11.0,28.0,67,0.00,,,0.15,,2013-02-19 22:52:00,
2013-02-19 13:01:00,76.0,63.0,30.09,ENE,76,8.0,16.0,64,0.00,,,0.15,,2013-02-19 23:01:00,
2013-02-19 13:11:00,76.0,63.0,30.09,ENE,76,8.0,16.0,64,0.00,,,0.15,,2013-02-19 23:11:00,
2013-02-19 13:21:00,77.0,64.0,30.08,East,82,8.0,15.0,65,0.00,,,0.15,,2013-02-19 23:21:00,
2013-02-19 13:31:00,77.0,63.0,30.08,ENE,76,15.0,27.0,63,0.00,,,0.15,,2013-02-19 23:31:00,
2013-02-19 13:41:00,77.0,63.0,30.08,ENE,76,15.0,27.0,63,0.00,,,0.15,,2013-02-19 23:41:00,
2013-02-19 13:52:00,77.0,65.0,30.08,ENE,61,9.0,21.0,66,0.00,,,0.15,,2013-02-19 23:52:00,
2013-02-19 14:01:00,77.0,65.0,30.06,ESE,115,8.0,23.0,66,0.00,,,0.15,,2013-02-20 00:01:00,
2013-02-19 14:11:00,77.0,65.0,30.06,ESE,115,8.0,23.0,66,0.00,,,0.15,,2013-02-20 00:11:00,
2013-02-19 14:21:00,73.0,65.0,30.05,East,84,15.0,27.0,77,0.00,,,0.17,,2013-02-20 00:21:00,
2013-02-19 14:31:00,74.0,64.0,30.06,East,86,14.0,25.0,71,0.00,,,0.17,,2013-02-20 00:31:00,
2013-02-19 14:41:00,74.0,64.0,30.06,East,86,14.0,25.0,71,0.00,,,0.17,,2013-02-20 00:41:00,
2013-02-19 14:52:00,75.0,65.0,30.05,NNE,15,6.0,18.0,71,0.00,,,0.17,,2013-02-20 00:52:00,
2013-02-19 15:02:00,75.0,64.0,30.05,ENE,61,18.0,21.0,69,0.00,,,0.17,,2013-02-20 01:02:00,
2013-02-19 15:11:00,75.0,64.0,30.05,ENE,61,18.0,21.0,69,0.00,,,0.17,,2013-02-20 01:11:00,
2013-02-19 15:21:00,75.0,65.0,30.05,East,89,13.0,25.0,70,0.00,,,0.17,,2013-02-20 01:21:00,
2013-02-19 15:31:00,74.0,63.0,30.05,East,90,5.0,20.0,68,0.00,,,0.17,,2013-02-20 01:31:00,
2013-02-19 15:41:00,74.0,63.0,30.05,East,90,5.0,20.0,68,0.00,,,0.17,,2013-02-20 01:41:00,
2013-02-19 15:52:00,76.0,64.0,30.05,NE,39,7.0,22.0,67,0.00,,,0.17,,2013-02-20 01:52:00,
2013-02-19 16:01:00,75.0,64.0,30.05,NE,55,9.0,21.0,68,0.00,,,0.17,,2013-02-20 02:01:00,
2013-02-19 16:11:00,75.0,64.0,30.05,NE,55,9.0,21.0,68,0.00,,,0.17,,2013-02-20 02:11:00,
2013-02-19 16:21:00,75.0,64.0,30.04,NE,44,9.0,19.0,69,0.00,,,0.17,,2013-02-20 02:21:00,
2013-02-19 16:31:00,74.0,64.0,30.05,ENE,63,7.0,21.0,71,0.00,,,0.17,,2013-02-20 02:31:00,
2013-02-19 16:41:00,74.0,64.0,30.05,ENE,63,7.0,21.0,71,0.00,,,0.17,,2013-02-20 02:41:00,
2013-02-19 16:52:00,73.0,63.0,30.04,East,96,13.0,18.0,72,0.00,,,0.17,,2013-02-20 02:52:00,
2013-02-19 17:01:00,73.0,63.0,30.05,NE,55,7.0,29.0,72,0.00,,,0.17,,2013-02-20 03:01:00,
2013-02-19 17:11:00,73.0,63.0,30.05,NE,55,7.0,29.0,72,0.00,,,0.17,,2013-02-20 03:11:00,
2013-02-19 17:21:00,72.0,63.0,30.05,ENE,78,22.0,22.0,73,0.00,,,0.17,,2013-02-20 03:21:00,
2013-02-19 17:31:00,72.0,63.0,30.05,NE,41,7.0,18.0,73,0.00,,,0.17,,2013-02-20 03:31:00,
2013-02-19 17:41:00,72.0,63.0,30.05,NE,41,7.0,18.0,73,0.00,,,0.17,,2013-02-20 03:41:00,
2013-02-19 17:52:00,72.0,63.0,30.04,East,87,7.0,22.0,73,0.00,,,0.17,,2013-02-20 03:52:00,
2013-02-19 18:01:00,71.0,62.0,30.05,East,82,8.0,24.0,74,0.00,,,0.17,,2013-02-20 04:01:00,
2013-02-19 18:11:00,71.0,62.0,30.05,East,82,8.0,24.0,74,0.00,,,0.17,,2013-02-20 04:11:00,
2013-02-19 18:21:00,71.0,63.0,30.06,ENE,78,14.0,24.0,75,0.00,,,0.17,,2013-02-20 04:21:00,
2013-02-19 18:31:00,71.0,63.0,30.06,NE,35,12.0,25.0,75,0.00,,,0.17,,2013-02-20 04:31:00,
2013-02-19 18:41:00,71.0,63.0,30.06,NE,35,12.0,25.0,75,0.00,,,0.17,,2013-02-20 04:41:00,
2013-02-19 18:52:00,70.0,62.0,30.06,ENE,76,8.0,24.0,75,0.00,,,0.17,,2013-02-20 04:52:00,
2013-02-19 19:01:00,70.0,62.0,30.07,ENE,76,9.0,30.0,76,0.00,,,0.17,,2013-02-20 05:01:00,
2013-02-19 19:12:00,70.0,62.0,30.07,ENE,76,9.0,30.0,76,0.00,,,0.17,,2013-02-20 05:12:00,
2013-02-19 19:22:00,70.0,62.0,30.07,ENE,59,10.0,19.0,77,0.00,,,0.17,,2013-02-20 05:22:00,
2013-02-19 19:31:00,70.0,62.0,30.07,NE,55,20.0,22.0,77,0.00,,,0.17,,2013-02-20 05:31:00,
2013-02-19 19:42:00,70.0,62.0,30.07,NE,55,20.0,22.0,77,0.00,,,0.17,,2013-02-20 05:42:00,
2013-02-19 19:52:00,69.0,62.0,30.08,East,84,10.0,21.0,78,0.01,,,0.19,,2013-02-20 05:52:00,
2013-02-19 20:01:00,69.0,62.0,30.09,East,93,10.0,16.0,79,0.01,,,0.19,,2013-02-20 06:01:00,
2013-02-19 20:11:00,69.0,63.0,30.09,NE,42,4.0,17.0,80,0.01,,,0.19,,2013-02-20 06:11:00,
2013-02-19 20:21:00,69.0,63.0,30.09,NE,42,4.0,17.0,80,0.01,,,0.19,,2013-02-20 06:21:00,
2013-02-19 20:31:00,69.0,63.0,30.10,ENE,59,3.0,26.0,81,0.01,,,0.19,,2013-02-20 06:31:00,
2013-02-19 20:41:00,69.0,63.0,30.10,ENE,59,3.0,26.0,81,0.01,,,0.19,,2013-02-20 06:41:00,
2013-02-19 20:52:00,69.0,63.0,30.10,East,96,22.0,22.0,81,0.00,,,0.19,,2013-02-20 06:52:00,
2013-02-19 21:01:00,69.0,63.0,30.11,East,79,11.0,16.0,82,0.00,,,0.19,,2013-02-20 07:01:00,
2013-02-19 21:11:00,69.0,63.0,30.11,East,79,11.0,16.0,82,0.00,,,0.19,,2013-02-20 07:11:00,
2013-02-19 21:21:00,69.0,63.0,30.11,East,96,9.0,22.0,82,0.00,,,0.19,,2013-02-20 07:21:00,
2013-02-19 21:31:00,69.0,64.0,30.11,ENE,69,7.0,21.0,83,0.00,,,0.19,,2013-02-20 07:31:00,
2013-02-19 21:41:00,69.0,64.0,30.11,ENE,69,7.0,21.0,83,0.00,,,0.19,,2013-02-20 07:41:00,
2013-02-19 21:52:00,69.0,64.0,30.11,NE,55,3.0,15.0,83,0.00,,,0.19,,2013-02-20 07:52:00,
2013-02-19 22:01:00,69.0,64.0,30.12,ENE,64,8.0,17.0,83,0.00,,,0.19,,2013-02-20 08:01:00,
2013-02-19 22:11:00,69.0,64.0,30.12,ENE,64,8.0,17.0,83,0.00,,,0.19,,2013-02-20 08:11:00,
2013-02-19 22:21:00,69.0,64.0,30.12,NE,49,5.0,13.0,83,0.00,,,0.19,,2013-02-20 08:21:00,
2013-02-19 22:31:00,69.0,64.0,30.11,ENE,70,5.0,16.0,83,0.00,,,0.19,,2013-02-20 08:31:00,
2013-02-19 22:41:00,69.0,64.0,30.11,ENE,70,5.0,16.0,83,0.00,,,0.19,,2013-02-20 08:41:00,
2013-02-19 22:52:00,69.0,64.0,30.11,East,97,14.0,19.0,83,0.00,,,0.19,,2013-02-20 08:52:00,
2013-02-19 23:01:00,68.0,63.0,30.11,NNE,30,10.0,24.0,84,0.00,,,0.19,,2013-02-20 09:01:00,
2013-02-19 23:11:00,68.0,63.0,30.11,NNE,30,10.0,24.0,84,0.00,,,0.19,,2013-02-20 09:11:00,
2013-02-19 23:21:00,68.0,63.0,30.11,ENE,77,13.0,17.0,85,0.00,,,0.19,,2013-02-20 09:21:00,
2013-02-19 23:31:00,68.0,64.0,30.11,NE,47,4.0,17.0,86,0.00,,,0.18,,2013-02-20 09:31:00,
2013-02-19 23:41:00,68.0,64.0,30.11,NE,47,4.0,17.0,86,0.00,,,0.18,,2013-02-20 09:41:00,
2013-02-19 23:51:00,68.0,64.0,30.11,NE,47,6.0,20.0,86,0.00,,,0.14,,2013-02-20 09:51:00,